Time,TemperatureF,DewpointF,PressureIn,WindDirection,WindDirectionDegrees,WindSpeedMPH,WindSpeedGustMPH,Humidity,HourlyPrecipIn,Conditions,Clouds,dailyrainin,SoftwareType,DateUTC
2013-01-07 00:00:00,38.0,0.0,30.03,NNW,330,0.0,0.0,76,-99.99,,,-99.99,,2013-01-07 08:00:00,
2013-01-07 00:08:00,38.0,0.0,30.03,NW,324,0.0,0.0,72,-99.99,,,-99.99,,2013-01-07 08:08:00,
2013-01-07 00:16:00,39.0,0.0,30.03,ENE,61,0.0,0.0,73,-99.99,,,-99.99,,2013-01-07 08:16:00,
2013-01-07 00:24:00,38.0,0.0,30.02,NNW,333,10.0,10.0,71,-99.99,,,-99.99,,2013-01-07 08:24:00,
2013-01-07 00:32:00,39.0,0.0,30.02,NNW,331,10.0,10.0,69,-99.99,,,-99.99,,2013-01-07 08:32:00,
2013-01-07 00:40:00,38.0,0.0,30.02,NNW,327,12.0,12.0,77,-99.99,,,-99.99,,2013-01-07 08:40:00,
2013-01-07 00:48:00,37.0,0.0,30.02,NNW,330,12.0,12.0,76,-99.99,,,-99.99,,2013-01-07 08:48:00,
2013-01-07 00:56:00,37.0,0.0,30.02,NNW,329,8.0,9.0,78,-99.99,,,-99.99,,2013-01-07 08:56:00,
2013-01-07 01:04:00,36.0,0.0,30.02,NW,306,10.0,10.0,80,-99.99,,,-99.99,,2013-01-07 09:04:00,
2013-01-07 01:12:00,36.0,0.0,30.02,NW,307,0.0,0.0,79,-99.99,,,-99.99,,2013-01-07 09:12:00,
2013-01-07 01:20:00,37.0,0.0,30.03,NW,321,0.0,0.0,75,-99.99,,,-99.99,,2013-01-07 09:20:00,
2013-01-07 01:28:00,37.0,0.0,30.03,WNW,297,0.0,0.0,75,-99.99,,,-99.99,,2013-01-07 09:28:00,
2013-01-07 01:36:00,36.0,0.0,30.03,NW,314,0.0,0.0,78,-99.99,,,-99.99,,2013-01-07 09:36:00,
2013-01-07 01:44:00,36.0,0.0,30.03,NW,326,0.0,0.0,75,-99.99,,,-99.99,,2013-01-07 09:44:00,
2013-01-07 01:52:00,36.0,0.0,30.03,NW,326,5.0,5.0,79,-99.99,,,-99.99,,2013-01-07 09:52:00,
2013-01-07 02:00:00,35.0,0.0,30.03,NW,326,13.0,13.0,77,-99.99,,,-99.99,,2013-01-07 10:00:00,
2013-01-07 02:08:00,34.0,0.0,30.03,NNW,327,12.0,12.0,77,-99.99,,,-99.99,,2013-01-07 10:08:00,
2013-01-07 02:16:00,34.0,0.0,30.02,NNW,327,10.0,13.0,77,-99.99,,,-99.99,,2013-01-07 10:16:00,
2013-01-07 02:24:00,33.0,0.0,30.03,NW,322,13.0,13.0,79,-99.99,,,-99.99,,2013-01-07 10:24:00,
2013-01-07 02:32:00,33.0,0.0,30.03,NNW,329,14.0,14.0,81,-99.99,,,-99.99,,2013-01-07 10:32:00,
2013-01-07 02:40:00,33.0,0.0,30.02,NW,317,13.0,13.0,78,-99.99,,,-99.99,,2013-01-07 10:40:00,
2013-01-07 02:48:00,34.0,0.0,30.03,NW,324,13.0,13.0,76,-99.99,,,-99.99,,2013-01-07 10:48:00,
2013-01-07 02:56:00,33.0,0.0,30.02,NW,316,0.0,0.0,79,-99.99,,,-99.99,,2013-01-07 10:56:00,
2013-01-07 03:04:00,33.0,0.0,30.03,NW,319,0.0,0.0,77,-99.99,,,-99.99,,2013-01-07 11:04:00,
2013-01-07 03:12:00,31.0,0.0,30.03,NW,310,8.0,9.0,83,-99.99,,,-99.99,,2013-01-07 11:12:00,
2013-01-07 03:20:00,29.0,0.0,30.03,NW,314,5.0,5.0,81,-99.99,,,-99.99,,2013-01-07 11:20:00,
2013-01-07 03:28:00,30.0,0.0,30.03,WNW,301,15.0,15.0,82,-99.99,,,-99.99,,2013-01-07 11:28:00,
2013-01-07 03:36:00,30.0,0.0,30.03,NW,321,8.0,8.0,81,-99.99,,,-99.99,,2013-01-07 11:36:00,
2013-01-07 03:44:00,30.0,0.0,30.03,NW,312,9.0,10.0,82,-99.99,,,-99.99,,2013-01-07 11:44:00,
2013-01-07 03:52:00,29.0,0.0,30.02,NW,317,12.0,12.0,81,-99.99,,,-99.99,,2013-01-07 11:52:00,
2013-01-07 04:00:00,29.0,0.0,30.02,WNW,289,9.0,9.0,80,-99.99,,,-99.99,,2013-01-07 12:00:00,
2013-01-07 04:08:00,28.0,0.0,30.02,NW,308,5.0,9.0,80,-99.99,,,-99.99,,2013-01-07 12:08:00,
2013-01-07 04:16:00,29.0,0.0,30.02,NW,305,2.0,3.0,79,-99.99,,,-99.99,,2013-01-07 12:16:00,
2013-01-07 04:24:00,30.0,0.0,30.02,NW,313,7.0,12.0,76,-99.99,,,-99.99,,2013-01-07 12:24:00,
2013-01-07 04:32:00,30.0,0.0,30.02,NW,312,3.0,5.0,75,-99.99,,,-99.99,,2013-01-07 12:32:00,
2013-01-07 04:40:00,30.0,0.0,30.02,WNW,299,2.0,3.0,76,-99.99,,,-99.99,,2013-01-07 12:40:00,
2013-01-07 04:48:00,31.0,0.0,30.03,WNW,302,0.0,0.0,71,-99.99,,,-99.99,,2013-01-07 12:48:00,
2013-01-07 04:56:00,32.0,0.0,30.03,NW,325,0.0,0.0,66,-99.99,,,-99.99,,2013-01-07 12:56:00,
2013-01-07 05:04:00,32.0,0.0,30.02,WNW,297,8.0,8.0,67,-99.99,,,-99.99,,2013-01-07 13:04:00,
2013-01-07 05:12:00,30.0,0.0,30.03,NW,312,0.0,0.0,70,-99.99,,,-99.99,,2013-01-07 13:12:00,
2013-01-07 05:20:00,30.0,0.0,30.03,WNW,293,12.0,12.0,71,-99.99,,,-99.99,,2013-01-07 13:20:00,
2013-01-07 05:28:00,30.0,0.0,30.03,NW,314,5.0,5.0,70,-99.99,,,-99.99,,2013-01-07 13:28:00,
2013-01-07 05:36:00,30.0,0.0,30.03,West,274,1.0,2.0,70,-99.99,,,-99.99,,2013-01-07 13:36:00,
2013-01-07 05:44:00,29.0,0.0,30.04,NW,318,12.0,13.0,74,-99.99,,,-99.99,,2013-01-07 13:44:00,
2013-01-07 05:52:00,29.0,0.0,30.03,WNW,284,17.0,17.0,72,-99.99,,,-99.99,,2013-01-07 13:52:00,
2013-01-07 06:00:00,30.0,0.0,30.04,NW,317,13.0,14.0,66,-99.99,,,-99.99,,2013-01-07 14:00:00,
2013-01-07 06:08:00,34.0,0.0,30.04,NNW,327,9.0,10.0,56,-99.99,,,-99.99,,2013-01-07 14:08:00,
2013-01-07 06:16:00,38.0,0.0,30.05,NW,326,10.0,12.0,46,-99.99,,,-99.99,,2013-01-07 14:16:00,
2013-01-07 06:24:00,39.0,0.0,30.05,NNW,333,0.0,0.0,48,-99.99,,,-99.99,,2013-01-07 14:24:00,
2013-01-07 06:32:00,33.0,0.0,30.06,South,184,0.0,0.0,60,-99.99,,,-99.99,,2013-01-07 14:32:00,
2013-01-07 06:40:00,32.0,0.0,30.05,NNW,333,9.0,9.0,64,-99.99,,,-99.99,,2013-01-07 14:40:00,
2013-01-07 06:48:00,32.0,0.0,30.06,SW,226,0.0,0.0,62,-99.99,,,-99.99,,2013-01-07 14:48:00,
2013-01-07 06:56:00,30.0,0.0,30.06,West,272,0.0,0.0,67,-99.99,,,-99.99,,2013-01-07 14:56:00,
2013-01-07 07:04:00,31.0,0.0,30.07,SW,225,0.0,0.0,67,-99.99,,,-99.99,,2013-01-07 15:04:00,
2013-01-07 07:12:00,31.0,0.0,30.07,NNW,328,0.0,0.0,64,-99.99,,,-99.99,,2013-01-07 15:12:00,
2013-01-07 07:20:00,32.0,0.0,30.07,South,182,0.0,0.0,64,-99.99,,,-99.99,,2013-01-07 15:20:00,
2013-01-07 07:28:00,32.0,0.0,30.07,SW,224,0.0,0.0,60,-99.99,,,-99.99,,2013-01-07 15:28:00,
2013-01-07 07:36:00,32.0,0.0,30.08,WSW,250,0.0,0.0,62,-99.99,,,-99.99,,2013-01-07 15:36:00,
2013-01-07 07:44:00,33.0,0.0,30.08,WSW,251,0.0,0.0,61,-99.99,,,-99.99,,2013-01-07 15:44:00,
2013-01-07 07:52:00,34.0,0.0,30.08,SW,223,0.0,0.0,61,-99.99,,,-99.99,,2013-01-07 15:52:00,
2013-01-07 08:00:00,34.0,0.0,30.08,NNW,328,0.0,0.0,59,-99.99,,,-99.99,,2013-01-07 16:00:00,
2013-01-07 08:08:00,37.0,0.0,30.09,NW,320,0.0,0.0,59,-99.99,,,-99.99,,2013-01-07 16:08:00,
2013-01-07 08:16:00,38.0,0.0,30.09,NW,317,0.0,0.0,55,-99.99,,,-99.99,,2013-01-07 16:16:00,
2013-01-07 08:24:00,38.0,0.0,30.10,NW,319,0.0,0.0,56,-99.99,,,-99.99,,2013-01-07 16:24:00,
2013-01-07 08:32:00,40.0,0.0,30.10,NW,316,5.0,6.0,51,-99.99,,,-99.99,,2013-01-07 16:32:00,
2013-01-07 08:40:00,41.0,0.0,30.10,NW,320,0.0,0.0,51,-99.99,,,-99.99,,2013-01-07 16:40:00,
2013-01-07 08:48:00,41.0,0.0,30.11,NNW,327,0.0,0.0,50,-99.99,,,-99.99,,2013-01-07 16:48:00,
2013-01-07 08:56:00,44.0,0.0,30.11,NW,316,0.0,0.0,45,-99.99,,,-99.99,,2013-01-07 16:56:00,
2013-01-07 09:04:00,44.0,0.0,30.11,West,276,0.0,0.0,47,-99.99,,,-99.99,,2013-01-07 17:04:00,
2013-01-07 09:12:00,46.0,0.0,30.12,West,276,0.0,0.0,43,-99.99,,,-99.99,,2013-01-07 17:12:00,
2013-01-07 09:20:00,48.0,0.0,30.12,WNW,287,0.0,0.0,39,-99.99,,,-99.99,,2013-01-07 17:20:00,
2013-01-07 09:28:00,49.0,0.0,30.12,West,279,0.0,0.0,36,-99.99,,,-99.99,,2013-01-07 17:28:00,
2013-01-07 09:36:00,48.0,0.0,30.12,West,275,0.0,0.0,37,-99.99,,,-99.99,,2013-01-07 17:36:00,
2013-01-07 09:44:00,47.0,0.0,30.12,WSW,255,0.0,0.0,41,-99.99,,,-99.99,,2013-01-07 17:44:00,
2013-01-07 09:52:00,48.0,0.0,30.12,WSW,249,0.0,2.0,44,-99.99,,,-99.99,,2013-01-07 17:52:00,
2013-01-07 10:00:00,48.0,0.0,30.13,WSW,256,1.0,3.0,42,-99.99,,,-99.99,,2013-01-07 18:00:00,
2013-01-07 10:08:00,49.0,0.0,30.13,WSW,252,8.0,8.0,40,-99.99,,,-99.99,,2013-01-07 18:08:00,
2013-01-07 10:16:00,50.0,0.0,30.13,WSW,247,8.0,8.0,36,-99.99,,,-99.99,,2013-01-07 18:16:00,
2013-01-07 10:24:00,50.0,0.0,30.13,West,269,5.0,7.0,32,-99.99,,,-99.99,,2013-01-07 18:24:00,
2013-01-07 10:32:00,50.0,0.0,30.13,West,269,9.0,9.0,31,-99.99,,,-99.99,,2013-01-07 18:32:00,
2013-01-07 10:40:00,50.0,0.0,30.13,West,278,6.0,6.0,29,-99.99,,,-99.99,,2013-01-07 18:40:00,
2013-01-07 10:48:00,50.0,0.0,30.12,WNW,285,3.0,3.0,30,-99.99,,,-99.99,,2013-01-07 18:48:00,
2013-01-07 10:56:00,52.0,0.0,30.12,WNW,289,6.0,6.0,27,-99.99,,,-99.99,,2013-01-07 18:56:00,
2013-01-07 11:04:00,52.0,0.0,30.11,West,261,7.0,8.0,29,-99.99,,,-99.99,,2013-01-07 19:04:00,
2013-01-07 11:12:00,53.0,0.0,30.10,West,279,3.0,3.0,27,-99.99,,,-99.99,,2013-01-07 19:12:00,
2013-01-07 11:20:00,53.0,0.0,30.10,West,268,5.0,5.0,26,-99.99,,,-99.99,,2013-01-07 19:20:00,
2013-01-07 11:28:00,53.0,0.0,30.09,West,273,5.0,5.0,26,-99.99,,,-99.99,,2013-01-07 19:28:00,
2013-01-07 11:36:00,54.0,0.0,30.08,WSW,244,5.0,5.0,26,-99.99,,,-99.99,,2013-01-07 19:36:00,
2013-01-07 11:44:00,53.0,0.0,30.08,WSW,254,5.0,5.0,24,-99.99,,,-99.99,,2013-01-07 19:44:00,
2013-01-07 11:52:00,54.0,0.0,30.07,WNW,283,2.0,2.0,25,-99.99,,,-99.99,,2013-01-07 19:52:00,
2013-01-07 12:00:00,55.0,0.0,30.07,WNW,297,0.0,0.0,22,-99.99,,,-99.99,,2013-01-07 20:00:00,
2013-01-07 12:08:00,55.0,0.0,30.06,WNW,287,0.0,0.0,23,-99.99,,,-99.99,,2013-01-07 20:08:00,
2013-01-07 12:16:00,55.0,0.0,30.06,West,269,2.0,2.0,25,-99.99,,,-99.99,,2013-01-07 20:16:00,
2013-01-07 12:24:00,55.0,0.0,30.06,West,267,6.0,6.0,23,-99.99,,,-99.99,,2013-01-07 20:24:00,
2013-01-07 12:32:00,55.0,0.0,30.06,WSW,254,3.0,5.0,23,-99.99,,,-99.99,,2013-01-07 20:32:00,
2013-01-07 12:40:00,56.0,0.0,30.05,NNW,334,0.0,1.0,20,-99.99,,,-99.99,,2013-01-07 20:40:00,
2013-01-07 12:48:00,56.0,0.0,30.05,West,260,2.0,2.0,22,-99.99,,,-99.99,,2013-01-07 20:48:00,
2013-01-07 12:56:00,57.0,0.0,30.04,West,277,5.0,6.0,24,-99.99,,,-99.99,,2013-01-07 20:56:00,
2013-01-07 13:04:00,57.0,0.0,30.03,West,260,3.0,5.0,22,-99.99,,,-99.99,,2013-01-07 21:04:00,
2013-01-07 13:12:00,57.0,0.0,30.03,West,275,2.0,2.0,24,-99.99,,,-99.99,,2013-01-07 21:12:00,
2013-01-07 13:20:00,58.0,0.0,30.02,West,262,5.0,5.0,21,-99.99,,,-99.99,,2013-01-07 21:20:00,
2013-01-07 13:28:00,58.0,0.0,30.02,SW,233,6.0,7.0,21,-99.99,,,-99.99,,2013-01-07 21:28:00,
2013-01-07 13:36:00,58.0,0.0,30.02,WSW,239,7.0,7.0,22,-99.99,,,-99.99,,2013-01-07 21:36:00,
2013-01-07 13:44:00,58.0,0.0,30.02,SW,236,5.0,5.0,18,-99.99,,,-99.99,,2013-01-07 21:44:00,
2013-01-07 13:52:00,58.0,0.0,30.02,WSW,250,3.0,5.0,19,-99.99,,,-99.99,,2013-01-07 21:52:00,
2013-01-07 14:00:00,58.0,0.0,30.02,WSW,243,7.0,7.0,20,-99.99,,,-99.99,,2013-01-07 22:00:00,
2013-01-07 14:08:00,58.0,0.0,30.02,WSW,245,7.0,7.0,18,-99.99,,,-99.99,,2013-01-07 22:08:00,
2013-01-07 14:16:00,58.0,0.0,30.02,WSW,246,6.0,6.0,20,-99.99,,,-99.99,,2013-01-07 22:16:00,
2013-01-07 14:24:00,58.0,0.0,30.02,West,259,7.0,8.0,19,-99.99,,,-99.99,,2013-01-07 22:24:00,
2013-01-07 14:32:00,58.0,0.0,30.03,WSW,243,7.0,7.0,21,-99.99,,,-99.99,,2013-01-07 22:32:00,
2013-01-07 14:40:00,57.0,0.0,30.03,West,271,7.0,7.0,21,-99.99,,,-99.99,,2013-01-07 22:40:00,
2013-01-07 14:48:00,58.0,0.0,30.03,West,273,5.0,5.0,21,-99.99,,,-99.99,,2013-01-07 22:48:00,
2013-01-07 14:56:00,57.0,0.0,30.03,West,270,7.0,7.0,20,-99.99,,,-99.99,,2013-01-07 22:56:00,
2013-01-07 15:04:00,57.0,0.0,30.03,West,259,8.0,8.0,22,-99.99,,,-99.99,,2013-01-07 23:04:00,
2013-01-07 15:12:00,58.0,0.0,30.03,West,268,6.0,6.0,22,-99.99,,,-99.99,,2013-01-07 23:12:00,
2013-01-07 15:20:00,58.0,0.0,30.04,WSW,258,7.0,9.0,19,-99.99,,,-99.99,,2013-01-07 23:20:00,
2013-01-07 15:28:00,57.0,0.0,30.04,West,265,3.0,5.0,21,-99.99,,,-99.99,,2013-01-07 23:28:00,
2013-01-07 15:36:00,57.0,0.0,30.04,West,264,6.0,6.0,20,-99.99,,,-99.99,,2013-01-07 23:36:00,
2013-01-07 15:44:00,57.0,0.0,30.04,WSW,240,7.0,7.0,19,-99.99,,,-99.99,,2013-01-07 23:44:00,
2013-01-07 15:52:00,57.0,0.0,30.04,SW,232,9.0,9.0,21,-99.99,,,-99.99,,2013-01-07 23:52:00,
2013-01-07 16:00:00,57.0,0.0,30.04,West,266,9.0,9.0,21,-99.99,,,-99.99,,2013-01-08 00:00:00,
2013-01-07 16:08:00,57.0,0.0,30.05,West,260,9.0,9.0,21,-99.99,,,-99.99,,2013-01-08 00:08:00,
2013-01-07 16:16:00,56.0,0.0,30.05,West,272,2.0,2.0,20,-99.99,,,-99.99,,2013-01-08 00:16:00,
2013-01-07 16:24:00,55.0,0.0,30.05,WNW,287,6.0,6.0,21,-99.99,,,-99.99,,2013-01-08 00:24:00,
2013-01-07 16:32:00,55.0,0.0,30.05,WNW,289,1.0,2.0,23,-99.99,,,-99.99,,2013-01-08 00:32:00,
2013-01-07 16:40:00,55.0,0.0,30.05,WNW,299,6.0,6.0,23,-99.99,,,-99.99,,2013-01-08 00:40:00,
2013-01-07 16:48:00,54.0,0.0,30.05,NW,308,3.0,3.0,22,-99.99,,,-99.99,,2013-01-08 00:48:00,
2013-01-07 16:56:00,54.0,0.0,30.05,NW,309,2.0,3.0,22,-99.99,,,-99.99,,2013-01-08 00:56:00,
2013-01-07 17:04:00,54.0,0.0,30.05,WNW,284,0.0,0.0,21,-99.99,,,-99.99,,2013-01-08 01:04:00,
2013-01-07 17:12:00,54.0,0.0,30.05,WNW,285,0.0,0.0,24,-99.99,,,-99.99,,2013-01-08 01:12:00,
2013-01-07 17:20:00,52.0,0.0,30.05,WSW,244,0.0,0.0,27,-99.99,,,-99.99,,2013-01-08 01:20:00,
2013-01-07 17:28:00,51.0,0.0,30.06,West,263,0.0,0.0,26,-99.99,,,-99.99,,2013-01-08 01:28:00,
2013-01-07 17:36:00,50.0,0.0,30.06,NW,311,6.0,6.0,29,-99.99,,,-99.99,,2013-01-08 01:36:00,
2013-01-07 17:44:00,49.0,0.0,30.06,NW,306,5.0,5.0,30,-99.99,,,-99.99,,2013-01-08 01:44:00,
2013-01-07 17:52:00,48.0,0.0,30.06,NW,313,5.0,5.0,32,-99.99,,,-99.99,,2013-01-08 01:52:00,
2013-01-07 18:00:00,47.0,0.0,30.06,NW,318,3.0,3.0,31,-99.99,,,-99.99,,2013-01-08 02:00:00,
2013-01-07 18:08:00,46.0,0.0,30.06,NW,324,5.0,5.0,32,-99.99,,,-99.99,,2013-01-08 02:08:00,
2013-01-07 18:16:00,45.0,0.0,30.06,NW,310,5.0,6.0,33,-99.99,,,-99.99,,2013-01-08 02:16:00,
2013-01-07 18:24:00,44.0,0.0,30.06,NW,319,6.0,6.0,38,-99.99,,,-99.99,,2013-01-08 02:24:00,
2013-01-07 18:32:00,43.0,0.0,30.06,NW,318,8.0,8.0,37,-99.99,,,-99.99,,2013-01-08 02:32:00,
2013-01-07 18:40:00,42.0,0.0,30.06,NW,309,6.0,6.0,35,-99.99,,,-99.99,,2013-01-08 02:40:00,
2013-01-07 18:48:00,41.0,0.0,30.06,NW,325,6.0,6.0,36,-99.99,,,-99.99,,2013-01-08 02:48:00,
2013-01-07 18:56:00,41.0,0.0,30.07,NW,321,7.0,7.0,34,-99.99,,,-99.99,,2013-01-08 02:56:00,
2013-01-07 19:04:00,41.0,0.0,30.07,NW,313,7.0,9.0,35,-99.99,,,-99.99,,2013-01-08 03:04:00,
2013-01-07 19:12:00,41.0,0.0,30.07,WNW,293,10.0,10.0,34,-99.99,,,-99.99,,2013-01-08 03:12:00,
2013-01-07 19:20:00,40.0,0.0,30.08,NW,323,8.0,8.0,36,-99.99,,,-99.99,,2013-01-08 03:20:00,
2013-01-07 19:28:00,40.0,0.0,30.08,NW,316,9.0,9.0,37,-99.99,,,-99.99,,2013-01-08 03:28:00,
2013-01-07 19:36:00,40.0,0.0,30.08,NW,308,8.0,8.0,36,-99.99,,,-99.99,,2013-01-08 03:36:00,
2013-01-07 19:44:00,39.0,0.0,30.08,NW,310,8.0,9.0,40,-99.99,,,-99.99,,2013-01-08 03:44:00,
2013-01-07 19:52:00,39.0,0.0,30.08,NW,313,6.0,9.0,38,-99.99,,,-99.99,,2013-01-08 03:52:00,
2013-01-07 20:00:00,39.0,0.0,30.08,NW,312,12.0,12.0,38,-99.99,,,-99.99,,2013-01-08 04:00:00,
2013-01-07 20:08:00,39.0,0.0,30.07,NW,313,9.0,12.0,38,-99.99,,,-99.99,,2013-01-08 04:08:00,
2013-01-07 20:16:00,38.0,0.0,30.08,NW,318,13.0,13.0,39,-99.99,,,-99.99,,2013-01-08 04:16:00,
2013-01-07 20:24:00,37.0,0.0,30.08,NW,325,14.0,15.0,42,-99.99,,,-99.99,,2013-01-08 04:24:00,
2013-01-07 20:32:00,37.0,0.0,30.07,NW,319,12.0,12.0,40,-99.99,,,-99.99,,2013-01-08 04:32:00,
2013-01-07 20:40:00,37.0,0.0,30.07,WNW,299,14.0,14.0,39,-99.99,,,-99.99,,2013-01-08 04:40:00,
2013-01-07 20:48:00,36.0,0.0,30.08,WNW,297,14.0,14.0,41,-99.99,,,-99.99,,2013-01-08 04:48:00,
2013-01-07 20:56:00,36.0,0.0,30.07,NW,313,12.0,13.0,42,-99.99,,,-99.99,,2013-01-08 04:56:00,
2013-01-07 21:00:00,36.0,0.0,30.07,WNW,300,12.0,12.0,40,-99.99,,,-99.99,,2013-01-08 05:00:00,
2013-01-07 21:01:00,36.0,0.0,30.07,WNW,300,12.0,12.0,40,-99.99,,,-99.99,,2013-01-08 05:01:00,
2013-01-07 21:08:00,36.0,0.0,30.08,WNW,291,9.0,10.0,39,-99.99,,,-99.99,,2013-01-08 05:08:00,
2013-01-07 21:12:00,36.0,0.0,30.08,NW,315,14.0,14.0,42,-99.99,,,-99.99,,2013-01-08 05:12:00,
2013-01-07 21:20:00,36.0,0.0,30.08,NW,312,16.0,17.0,42,-99.99,,,-99.99,,2013-01-08 05:20:00,
2013-01-07 21:28:00,36.0,0.0,30.08,WNW,299,12.0,12.0,41,-99.99,,,-99.99,,2013-01-08 05:28:00,
2013-01-07 21:36:00,37.0,0.0,30.08,WNW,299,14.0,15.0,38,-99.99,,,-99.99,,2013-01-08 05:36:00,
2013-01-07 21:44:00,38.0,0.0,30.08,West,278,13.0,13.0,35,-99.99,,,-99.99,,2013-01-08 05:44:00,
2013-01-07 21:52:00,38.0,0.0,30.08,WNW,298,10.0,10.0,34,-99.99,,,-99.99,,2013-01-08 05:52:00,
2013-01-07 22:00:00,39.0,0.0,30.08,NW,305,10.0,10.0,34,-99.99,,,-99.99,,2013-01-08 06:00:00,
2013-01-07 22:08:00,39.0,0.0,30.08,NW,304,10.0,12.0,37,-99.99,,,-99.99,,2013-01-08 06:08:00,
2013-01-07 22:16:00,38.0,0.0,30.08,NW,316,2.0,2.0,36,-99.99,,,-99.99,,2013-01-08 06:16:00,
2013-01-07 22:24:00,37.0,0.0,30.08,NW,310,12.0,12.0,37,-99.99,,,-99.99,,2013-01-08 06:24:00,
2013-01-07 22:32:00,36.0,0.0,30.08,NW,319,9.0,10.0,38,-99.99,,,-99.99,,2013-01-08 06:32:00,
2013-01-07 22:40:00,38.0,0.0,30.08,NW,322,12.0,12.0,37,-99.99,,,-99.99,,2013-01-08 06:40:00,
2013-01-07 22:48:00,37.0,0.0,30.08,NW,312,8.0,9.0,40,-99.99,,,-99.99,,2013-01-08 06:48:00,
2013-01-07 22:56:00,36.0,0.0,30.08,NW,316,3.0,3.0,39,-99.99,,,-99.99,,2013-01-08 06:56:00,
2013-01-07 23:04:00,36.0,0.0,30.08,NNW,329,0.0,0.0,39,-99.99,,,-99.99,,2013-01-08 07:04:00,
2013-01-07 23:12:00,36.0,0.0,30.08,NW,323,0.0,0.0,42,-99.99,,,-99.99,,2013-01-08 07:12:00,
2013-01-07 23:20:00,36.0,0.0,30.08,NW,306,0.0,0.0,42,-99.99,,,-99.99,,2013-01-08 07:20:00,
2013-01-07 23:28:00,35.0,0.0,30.08,WNW,293,9.0,9.0,42,-99.99,,,-99.99,,2013-01-08 07:28:00,
2013-01-07 23:36:00,35.0,0.0,30.08,NW,315,14.0,14.0,41,-99.99,,,-99.99,,2013-01-08 07:36:00,
2013-01-07 23:44:00,36.0,0.0,30.08,WNW,303,9.0,10.0,40,-99.99,,,-99.99,,2013-01-08 07:44:00,
2013-01-07 23:52:00,37.0,0.0,30.08,NW,314,14.0,14.0,37,-99.99,,,-99.99,,2013-01-08 07:52:00,